Home   Weather   Amstetten   Past weeks
Flag for Austria

Past Weather in Amstetten, Lower Austria, Austria — Yesterday and Last 2 Weeks

Now
29 °F

Passing clouds.


Feels Like: 26 °F
Forecast: 46 / 27 °F
Wind: 3 mph from North

Location: Linz / Hoersching-Flughafen

Current Time: Feb 28, 2020 at 11:58:04 pm

Latest Report: Feb 28, 2020 at 11:00 pm


Visibility: 16 mi

Pressure: 30.12 "Hg

Humidity: 91%

Dew Point: 27 °F

Location of AmstettenLocation

Past Weather in Amstetten — Graph

°F

Amstetten Temperature Yesterday

Maximum temperature yesterday: 44 °F (at 3:00 pm)
Minimum temperature yesterday: 34 °F (at 10:00 pm)
Average temperature yesterday: 38 °F

High & Low Weather Summary for the Past Weeks

 TemperatureHumidityPressure
High61 °F (Feb 23, 9:00 pm)100% (Feb 15, 7:00 am)30.47 "Hg (Feb 15, 7:00 am)
Low29 °F (Feb 16, 7:00 am)36% (Feb 22, 3:00 pm)29.38 "Hg (Feb 27, 10:00 pm)
Average41 °F79%30.07 "Hg
* Reported Feb 13 10:00 pm — Feb 28 10:00 pm, Amstetten. Weather by CustomWeather, © 2020

Note: Actual official high and low records may vary slightly from our data, if they occured in-between our weather recording intervals... More about our weather records

Amstetten Weather History for the Previous 24 Hours

Scroll right to see more
 ConditionsComfort  
Time TempWeatherWind HumidityBarometerVisibility
10:00 pm
Fri, Feb 28
30 °FPassing clouds.2 mph92%30.14 "Hg16 mi
9:00 pm31 °FChilly.1 mph88%30.17 "Hg19 mi
8:00 pm32 °FPassing clouds.1 mph84%30.18 "Hg22 mi
7:00 pmN/APassing clouds.9 mphN/AN/A13 mi
6:00 pm36 °FPassing clouds.3 mph79%30.18 "Hg31 mi
5:00 pm38 °FScattered clouds.5 mph73%30.17 "Hg28 mi
4:00 pm38 °FPartly sunny.8 mph78%30.17 "Hg28 mi
3:00 pm39 °FPartly sunny.12 mph82%30.16 "Hg34 mi
2:00 pm35 °FLow clouds.12 mph89%30.16 "Hg19 mi
1:00 pm36 °FSnow showers. Overcast.13 mph87%30.15 "Hg2 mi
12:00 pm38 °FOvercast.12 mph72%30.12 "Hg28 mi
11:00 am37 °FOvercast.13 mph80%30.09 "Hg19 mi
10:00 am37 °FOvercast.15 mph82%30.05 "Hg25 mi
9:00 amN/APassing clouds.18 mphN/AN/A2 mi
8:00 am35 °FPartly sunny.12 mph89%29.97 "Hg25 mi
7:00 am36 °FOvercast.13 mph83%29.92 "Hg43 mi
6:00 am36 °FOvercast.13 mph84%29.88 "Hg16 mi
5:00 am36 °FOvercast.13 mph86%29.82 "Hg37 mi
4:00 am35 °FLight rain. Overcast.12 mph91%29.76 "Hg9 mi
3:00 amN/APassing clouds.10 mphN/AN/A9 mi
2:00 am36 °FLow clouds.21 mph89%29.57 "Hg43 mi
1:00 am37 °FRain showers. Overcast.17 mph86%29.47 "Hg7 mi
12:00 am39 °FRain showers. Overcast.16 mph76%29.44 "Hg15 mi
11:00 pm
Thu, Feb 27
37 °FSprinkles. Overcast.8 mph91%29.41 "Hg4 mi
Weather by CustomWeather, © 2020

See weather overview

Advertising